Flag Weather past 2 weeks in Arden-Arcade, California, U.S.A.

Now
59 °F

Passing clouds.


Feels Like: 59 °F
Forecast: 45 / 68 °F
Wind: No wind

Location: Mather Field

Current Time: Nov 26, 2014 at 5:47:09 PM

Latest Report: Nov 26, 2014 at 4:45 PM


Visibility: 10 mi

Pressure: 30.22 "Hg

Humidity: 63%

Dew point: 46 °F

Location of Arden-ArcadeLocation

Historic Weather in Arden-Arcade — Graph

°F

Arden-Arcade temperature yesterday

Maximum temperature yesterday: 64 °F (at 1:50 PM)
Minimum temperature yesterday: 41 °F (at 2:45 AM)
Average temperature yesterday: 50 °F

Past Weeks' High & Low Weather Summary

 TemperatureHumidityPressure
High88 °F (Nov 23, 11:49 AM)100% (Nov 12, 4:46 AM)30.50 "Hg (Nov 12, 4:46 AM)
Low34 °F (Nov 21, 8:45 AM)19% (Nov 23, 11:49 AM)29.91 "Hg (Nov 11, 4:45 PM)
Average53 °F86%30.16 "Hg
* Reported Nov 11 4:45 PM — Nov 26 4:45 PM, Arden-Arcade, Weather by CustomWeather, © 2014

Note: Actual official high and low records may vary slightly from our data, if they occured in-between our weather recording intervals... More about our weather records

Advertising

Arden-Arcade weather history for previous 24 hours

 ConditionsComfort  
Time TempWeatherWind HumidityBarometerVisibility
4:45 PM
Nov 26
59 °FPassing clouds.No wind63%30.22 "Hg10 mi
2:50 PM66 °FScattered clouds.3 mph49%30.24 "Hg10 mi
1:45 PM66 °FScattered clouds.No wind49%30.24 "Hg10 mi
12:50 PM64 °FPassing clouds.No wind56%30.27 "Hg10 mi
11:55 AM63 °FPassing clouds.No wind59%30.29 "Hg10 mi
10:55 AM57 °FPassing clouds.No wind72%30.32 "Hg10 mi
9:55 AM54 °FPassing clouds.No wind82%30.35 "Hg10 mi
7:45 AM39 °FPassing clouds.No wind100%30.35 "Hg10 mi
6:45 AM37 °FPassing clouds.3 mph100%30.33 "Hg10 mi
5:46 AM37 °FClear.No wind100%30.34 "Hg10 mi
4:46 AM39 °FClear.No wind100%30.34 "Hg10 mi
3:46 AM39 °FClear.No wind100%30.33 "Hg10 mi
2:46 AM39 °FClear.No wind100%30.35 "Hg10 mi
10:45 PM
Nov 25
43 °FClear.3 mph100%30.38 "Hg10 mi
9:45 PM43 °FClear.No wind100%30.38 "Hg10 mi
8:45 PM46 °FClear.No wind100%30.38 "Hg10 mi
7:45 PM46 °FClear.No wind100%30.38 "Hg10 mi
6:45 PM54 °FClear.No wind72%30.37 "Hg10 mi
5:49 PM55 °FPassing clouds.3 mph67%30.37 "Hg10 mi
Weather by CustomWeather, © 2014

See weather overviewHow to use our weather pages